Location: Cicognara
(44.9500°N, 10.4667°E)
Time: 15:28:40
(UTC+00:00)

GENESIS II - Pass Details

Date: 20 June 2021
Orbit: 509 x 516 km, 64.5° (Epoch: 02 August)

Event Time Altitude Azimuth Distance (km) Brightness Sun altitude
Exits shadow 21:20:14 34° 170° (S) 851 4.8 -16.4°
Maximum altitude 21:21:26 48° 121° (ESE) 677 4.4 -16.5°
Drops below altitude 10° 21:25:10 10° 46° (NE) 1,733 7.1 -16.8°
Sets 21:27:24 0° 41° (NE) 2,624 8.1 -17.0°
